PU2UHW-13 Weather Reports


time (UTC)temp
C
wind
direction
speed
KPH
gust
KPH
rain 1hr
cm
rain 24hr
cm
rain mn
cm
humidity
%
barometer
mb
20260507213555 22 0.0 0.0 0.00 0.00 0.00 69 1010.1
20260507213255 22 0.0 0.0 0.00 0.00 0.00 67 1010.1
20260507212954 22 0.0 0.0 0.00 0.00 0.00 67 1010.0
20260507212656 22 0.0 0.0 0.00 0.00 0.00 68 1010.1
20260507212355 22 0.0 0.0 0.00 0.00 0.00 67 1010.0
20260507212055 21 0.0 0.0 0.00 0.00 0.00 67 1010.1
20260507211755 21 0.0 0.0 0.00 0.00 0.00 68 1010.1
20260507211455 21 0.0 0.0 0.00 0.00 0.00 68 1010.1
20260507211155 22 0.0 0.0 0.00 0.00 0.00 67 1010.0
20260507210855 22 0.0 0.0 0.00 0.00 0.00 67 1010.1
20260507210555 22 0.0 0.0 0.00 0.00 0.00 66 1010.0
20260507210255 22 0.0 0.0 0.00 0.00 0.00 65 1009.8
20260507205955 22 0.0 0.0 0.00 0.00 0.00 66 1010.1
20260507205655 23 0.0 0.0 0.00 0.00 0.00 62 1009.9
20260507205355 23 0.0 0.0 0.00 0.00 0.00 62 1009.7
20260507205055 23 0.0 0.0 0.00 0.00 0.00 63 1009.9
20260507204755 23 0.0 0.0 0.00 0.00 0.00 62 1009.8
20260507204455 23 0.0 0.0 0.00 0.00 0.00 62 1009.8
20260507204156 23 0.0 0.0 0.00 0.00 0.00 62 1009.7
20260507203854 23 0.0 0.0 0.00 0.00 0.00 61 1009.7
20260507203550 23 0.0 0.0 0.00 0.00 0.00 62 1009.6
20260507203254 22 0.0 0.0 0.00 0.00 0.00 63 1009.6
20260507202954 23 0.0 0.0 0.00 0.00 0.00 61 1009.6
20260507202654 23 0.0 0.0 0.00 0.00 0.00 62 1009.6
20260507202355 23 0.0 0.0 0.00 0.00 0.00 61 1009.5
20260507202055 23 0.0 0.0 0.00 0.00 0.00 61 1009.5
20260507201755 23 0.0 0.0 0.00 0.00 0.00 60 1009.3
20260507201455 23 0.0 0.0 0.00 0.00 0.00 60 1009.4
20260507201155 23 0.0 0.0 0.00 0.00 0.00 60 1009.3
20260507200855 23 0.0 0.0 0.00 0.00 0.00 60 1009.3
20260507200554 23 0.0 0.0 0.00 0.00 0.00 60 1009.4
20260507200254 23 0.0 0.0 0.00 0.00 0.00 60 1009.4
20260507195955 23 0.0 0.0 0.00 0.00 0.00 59 1009.1
20260507195655 24 0.0 0.0 0.00 0.00 0.00 58 1009.1
20260507195355 23 0.0 0.0 0.00 0.00 0.00 59 1009.2
20260507195055 23 0.0 0.0 0.00 0.00 0.00 58 1009.0
20260507194754 24 0.0 0.0 0.00 0.00 0.00 58 1008.9
20260507194454 23 0.0 0.0 0.00 0.00 0.00 58 1009.1
20260507194154 23 0.0 0.0 0.00 0.00 0.00 59 1009.2
20260507193854 24 0.0 0.0 0.00 0.00 0.00 58 1009.2
20260507193555 23 0.0 0.0 0.00 0.00 0.00 58 1009.3
20260507193255 24 0.0 0.0 0.00 0.00 0.00 58 1009.1
20260507192955 23 0.0 0.0 0.00 0.00 0.00 58 1009.2
20260507192655 23 0.0 0.0 0.00 0.00 0.00 59 1009.3
20260507192355 24 0.0 0.0 0.00 0.00 0.00 58 1009.2
20260507192054 24 0.0 0.0 0.00 0.00 0.00 58 1009.1
20260507191754 24 0.0 0.0 0.00 0.00 0.00 57 1009.0
20260507191454 23 0.0 0.0 0.00 0.00 0.00 59 1009.2
20260507191155 24 0.0 0.0 0.00 0.00 0.00 58 1009.1
20260507190855 24 0.0 0.0 0.00 0.00 0.00 58 1009.1
20260507190555 24 0.0 0.0 0.00 0.00 0.00 57 1009.1
20260507190255 25 0.0 0.0 0.00 0.00 0.00 56 1009.0
20260507185955 24 0.0 0.0 0.00 0.00 0.00 57 1009.1
20260507185655 24 0.0 0.0 0.00 0.00 0.00 57 1009.1
20260507185355 24 0.0 0.0 0.00 0.00 0.00 56 1009.1
20260507185054 24 0.0 0.0 0.00 0.00 0.00 57 1009.3
20260507184755 24 0.0 0.0 0.00 0.00 0.00 57 1009.2
20260507184455 24 0.0 0.0 0.00 0.00 0.00 58 1009.3
20260507184155 23 0.0 0.0 0.00 0.00 0.00 58 1009.4
20260507183855 24 0.0 0.0 0.00 0.00 0.00 58 1009.2
20260507183555 23 0.0 0.0 0.00 0.00 0.00 58 1009.3
20260507183255 23 0.0 0.0 0.00 0.00 0.00 59 1009.5
20260507182955 24 0.0 0.0 0.00 0.00 0.00 57 1009.4
20260507182655 23 0.0 0.0 0.00 0.00 0.00 58 1009.5
20260507182355 23 0.0 0.0 0.00 0.00 0.00 58 1009.6
20260507182054 23 0.0 0.0 0.00 0.00 0.00 59 1009.7
20260507181754 24 0.0 0.0 0.00 0.00 0.00 58 1009.6
20260507181455 23 0.0 0.0 0.00 0.00 0.00 59 1009.8
20260507181154 23 0.0 0.0 0.00 0.00 0.00 58 1009.8
20260507180854 23 0.0 0.0 0.00 0.00 0.00 59 1009.9
20260507180554 23 0.0 0.0 0.00 0.00 0.00 59 1009.9
20260507180255 23 0.0 0.0 0.00 0.00 0.00 59 1009.9
20260507175955 24 0.0 0.0 0.00 0.00 0.00 57 1009.7
20260507175655 24 0.0 0.0 0.00 0.00 0.00 57 1009.7
20260507175354 23 0.0 0.0 0.00 0.00 0.00 57 1009.8
20260507175054 24 0.0 0.0 0.00 0.00 0.00 57 1009.9
20260507174755 24 0.0 0.0 0.00 0.00 0.00 56 1010.0
20260507174455 23 0.0 0.0 0.00 0.00 0.00 57 1010.0
20260507174155 23 0.0 0.0 0.00 0.00 0.00 58 1010.2
20260507173855 23 0.0 0.0 0.00 0.00 0.00 57 1010.2
20260507173555 24 0.0 0.0 0.00 0.00 0.00 56 1010.0
20260507173255 24 0.0 0.0 0.00 0.00 0.00 56 1009.9
20260507172955 24 0.0 0.0 0.00 0.00 0.00 56 1010.0
20260507172655 24 0.0 0.0 0.00 0.00 0.00 56 1009.9
20260507172354 23 0.0 0.0 0.00 0.00 0.00 56 1010.1
20260507172055 24 0.0 0.0 0.00 0.00 0.00 56 1010.1
20260507171754 24 0.0 0.0 0.00 0.00 0.00 55 1010.2
20260507171455 24 0.0 0.0 0.00 0.00 0.00 55 1010.2
20260507171155 24 0.0 0.0 0.00 0.00 0.00 55 1010.2
20260507170855 24 0.0 0.0 0.00 0.00 0.00 54 1010.2
20260507170555 24 0.0 0.0 0.00 0.00 0.00 54 1010.2
20260507170255 24 0.0 0.0 0.00 0.00 0.00 53 1010.4
20260507165955 24 0.0 0.0 0.00 0.00 0.00 54 1010.4
20260507165655 24 0.0 0.0 0.00 0.00 0.00 54 1010.5
20260507165355 24 0.0 0.0 0.00 0.00 0.00 54 1010.4
20260507165055 24 0.0 0.0 0.00 0.00 0.00 53 1010.3
20260507164755 24 0.0 0.0 0.00 0.00 0.00 54 1010.6
20260507164455 24 0.0 0.0 0.00 0.00 0.00 55 1010.5
20260507164155 24 0.0 0.0 0.00 0.00 0.00 55 1010.6
20260507163855 24 0.0 0.0 0.00 0.00 0.00 53 1010.7
20260507163555 24 0.0 0.0 0.00 0.00 0.00 56 1010.8
20260507163255 24 0.0 0.0 0.00 0.00 0.00 56 1010.8
20260507162955 24 0.0 0.0 0.00 0.00 0.00 57 1010.9
20260507162655 24 0.0 0.0 0.00 0.00 0.00 57 1011.0
20260507162355 23 0.0 0.0 0.00 0.00 0.00 57 1011.1
20260507162055 23 0.0 0.0 0.00 0.00 0.00 59 1011.1
20260507161755 23 0.0 0.0 0.00 0.00 0.00 57 1011.1
20260507161455 23 0.0 0.0 0.00 0.00 0.00 57 1011.0
20260507161155 23 0.0 0.0 0.00 0.00 0.00 59 1011.2
20260507160855 24 0.0 0.0 0.00 0.00 0.00 59 1011.0
20260507160554 24 0.0 0.0 0.00 0.00 0.00 60 1011.2
20260507160255 23 0.0 0.0 0.00 0.00 0.00 60 1011.3
20260507155955 24 0.0 0.0 0.00 0.00 0.00 58 1011.1
20260507155656 24 0.0 0.0 0.00 0.00 0.00 60 1011.3
20260507155355 24 0.0 0.0 0.00 0.00 0.00 60 1011.4
20260507155055 23 0.0 0.0 0.00 0.00 0.00 60 1011.3
20260507154754 23 0.0 0.0 0.00 0.00 0.00 63 1011.5
20260507154455 24 0.0 0.0 0.00 0.00 0.00 61 1011.4
20260507154154 24 0.0 0.0 0.00 0.00 0.00 61 1011.6
20260507153855 23 0.0 0.0 0.00 0.00 0.00 60 1011.8
20260507153555 23 0.0 0.0 0.00 0.00 0.00 60 1011.8
20260507153255 24 0.0 0.0 0.00 0.00 0.00 60 1012.0
20260507152954 23 0.0 0.0 0.00 0.00 0.00 61 1012.2
20260507152655 23 0.0 0.0 0.00 0.00 0.00 61 1012.2
20260507152355 23 0.0 0.0 0.00 0.00 0.00 61 1012.4
20260507152055 23 0.0 0.0 0.00 0.00 0.00 62 1012.6
20260507151754 23 0.0 0.0 0.00 0.00 0.00 64 1012.7
20260507151455 23 0.0 0.0 0.00 0.00 0.00 64 1012.8
20260507151155 23 0.0 0.0 0.00 0.00 0.00 64 1012.9
20260507150855 23 0.0 0.0 0.00 0.00 0.00 64 1012.8
20260507150554 22 0.0 0.0 0.00 0.00 0.00 66 1013.3
20260507150254 22 0.0 0.0 0.00 0.00 0.00 67 1013.4
20260507145955 23 0.0 0.0 0.00 0.00 0.00 66 1013.4
20260507145655 22 0.0 0.0 0.00 0.00 0.00 65 1013.4
20260507145355 22 0.0 0.0 0.00 0.00 0.00 66 1013.8
20260507145055 23 0.0 0.0 0.00 0.00 0.00 65 1013.7
20260507144754 23 0.0 0.0 0.00 0.00 0.00 65 1013.7
20260507144454 22 0.0 0.0 0.00 0.00 0.00 65 1013.9
20260507144154 23 0.0 0.0 0.00 0.00 0.00 65 1014.0
20260507143854 23 0.0 0.0 0.00 0.00 0.00 65 1013.8
20260507143554 22 0.0 0.0 0.00 0.00 0.00 66 1014.1
20260507143255 22 0.0 0.0 0.00 0.00 0.00 65 1014.4
20260507142955 22 0.0 0.0 0.00 0.00 0.00 66 1014.4
20260507142655 22 0.0 0.0 0.00 0.00 0.00 67 1014.6
20260507142355 22 0.0 0.0 0.00 0.00 0.00 67 1014.4
20260507142055 22 0.0 0.0 0.00 0.00 0.00 68 1014.6
20260507141754 22 0.0 0.0 0.00 0.00 0.00 68 1014.7
20260507141455 22 0.0 0.0 0.00 0.00 0.00 68 1014.7
20260507141154 22 0.0 0.0 0.00 0.00 0.00 68 1014.8
20260507140854 22 0.0 0.0 0.00 0.00 0.00 69 1014.9
20260507140554 22 0.0 0.0 0.00 0.00 0.00 69 1014.9
20260507140254 22 0.0 0.0 0.00 0.00 0.00 69 1015.0
20260507135954 22 0.0 0.0 0.00 0.00 0.00 68 1014.8
20260507135654 22 0.0 0.0 0.00 0.00 0.00 69 1015.0
20260507135355 22 0.0 0.0 0.00 0.00 0.00 70 1014.9
20260507135054 22 0.0 0.0 0.00 0.00 0.00 68 1015.1
20260507134754 22 0.0 0.0 0.00 0.00 0.00 68 1015.1
20260507134455 22 0.0 0.0 0.00 0.00 0.00 69 1015.2
20260507134155 22 0.0 0.0 0.00 0.00 0.00 68 1015.2
20260507133854 22 0.0 0.0 0.00 0.00 0.00 70 1015.3
20260507133555 22 0.0 0.0 0.00 0.00 0.00 68 1015.4
20260507133254 22 0.0 0.0 0.00 0.00 0.00 68 1015.1
20260507132954 22 0.0 0.0 0.00 0.00 0.00 70 1015.3
20260507132655 22 0.0 0.0 0.00 0.00 0.00 70 1015.4
20260507132355 21 0.0 0.0 0.00 0.00 0.00 70 1015.5
20260507132055 21 0.0 0.0 0.00 0.00 0.00 71 1015.6
20260507131755 21 0.0 0.0 0.00 0.00 0.00 71 1015.5
20260507131454 21 0.0 0.0 0.00 0.00 0.00 71 1015.6
20260507131154 21 0.0 0.0 0.00 0.00 0.00 71 1015.6
20260507130854 21 0.0 0.0 0.00 0.00 0.00 71 1015.7
20260507130555 21 0.0 0.0 0.00 0.00 0.00 71 1015.7
20260507130255 22 0.0 0.0 0.00 0.00 0.00 71 1015.7
20260507125955 21 0.0 0.0 0.00 0.00 0.00 73 1015.9
20260507125655 21 0.0 0.0 0.00 0.00 0.00 72 1015.9
20260507125354 21 0.0 0.0 0.00 0.00 0.00 74 1016.0
20260507125055 21 0.0 0.0 0.00 0.00 0.00 74 1016.2
20260507124755 21 0.0 0.0 0.00 0.00 0.00 75 1016.0
20260507124455 21 0.0 0.0 0.00 0.00 0.00 74 1015.9
20260507124155 21 0.0 0.0 0.00 0.00 0.00 75 1016.0
20260507123854 21 0.0 0.0 0.00 0.00 0.00 74 1016.0
20260507123554 21 0.0 0.0 0.00 0.00 0.00 75 1016.1
20260507123255 21 0.0 0.0 0.00 0.00 0.00 75 1016.2
20260507122955 21 0.0 0.0 0.00 0.00 0.00 76 1016.3
20260507122654 20 0.0 0.0 0.00 0.00 0.00 79 1016.4
20260507122354 20 0.0 0.0 0.00 0.00 0.00 77 1016.5
20260507122054 21 0.0 0.0 0.00 0.00 0.00 76 1016.4
20260507121754 20 0.0 0.0 0.00 0.00 0.00 77 1016.5
20260507121454 20 0.0 0.0 0.00 0.00 0.00 78 1016.5
20260507121154 20 0.0 0.0 0.00 0.00 0.00 80 1016.5
20260507120855 20 0.0 0.0 0.00 0.00 0.00 79 1016.5
20260507120555 19 0.0 0.0 0.00 0.00 0.00 80 1016.8
20260507120254 20 0.0 0.0 0.00 0.00 0.00 78 1016.8
20260507115955 20 0.0 0.0 0.00 0.00 0.00 78 1016.8
20260507115655 20 0.0 0.0 0.00 0.00 0.00 79 1016.7
20260507115355 20 0.0 0.0 0.00 0.00 0.00 80 1016.8
20260507115054 19 0.0 0.0 0.00 0.00 0.00 81 1016.9
20260507114754 19 0.0 0.0 0.00 0.00 0.00 82 1016.8
20260507114454 19 0.0 0.0 0.00 0.00 0.00 81 1017.1
20260507114154 19 0.0 0.0 0.00 0.00 0.00 80 1017.0
20260507113854 18 0.0 0.0 0.00 0.00 0.00 81 1017.1
20260507113554 19 0.0 0.0 0.00 0.00 0.00 79 1017.0
20260507113255 18 0.0 0.0 0.00 0.00 0.00 80 1017.2
20260507112955 18 0.0 0.0 0.00 0.00 0.00 78 1017.1
20260507112655 19 0.0 0.0 0.00 0.00 0.00 78 1017.0
20260507112355 18 0.0 0.0 0.00 0.00 0.00 79 1017.1
20260507112054 18 0.0 0.0 0.00 0.00 0.00 82 1017.4
20260507111754 18 0.0 0.0 0.00 0.00 0.00 80 1017.3
20260507111454 18 0.0 0.0 0.00 0.00 0.00 80 1017.3
20260507111155 18 0.0 0.0 0.00 0.00 0.00 82 1017.4
20260507110854 18 0.0 0.0 0.00 0.00 0.00 80 1017.2
20260507110554 18 0.0 0.0 0.00 0.00 0.00 78 1017.2
20260507110254 17 0.0 0.0 0.00 0.00 0.00 80 1017.5
20260507105954 17 0.0 0.0 0.00 0.00 0.00 81 1017.6
20260507105654 17 0.0 0.0 0.00 0.00 0.00 79 1017.5
20260507105355 17 0.0 0.0 0.00 0.00 0.00 79 1017.5
20260507105054 17 0.0 0.0 0.00 0.00 0.00 79 1017.6
20260507104754 17 0.0 0.0 0.00 0.00 0.00 80 1017.8
20260507104454 17 0.0 0.0 0.00 0.00 0.00 79 1017.8
20260507104154 17 0.0 0.0 0.00 0.00 0.00 80 1017.9
20260507103854 17 0.0 0.0 0.00 0.00 0.00 79 1017.8
20260507103554 17 0.0 0.0 0.00 0.00 0.00 79 1017.9
20260507103254 17 0.0 0.0 0.00 0.00 0.00 79 1017.9
20260507102954 16 0.0 0.0 0.00 0.00 0.00 81 1018.1
20260507102654 16 0.0 0.0 0.00 0.00 0.00 80 1018.1
20260507102354 16 0.0 0.0 0.00 0.00 0.00 82 1018.2
20260507102054 17 0.0 0.0 0.00 0.00 0.00 78 1017.9
20260507101754 16 0.0 0.0 0.00 0.00 0.00 81 1018.2
20260507101454 16 0.0 0.0 0.00 0.00 0.00 80 1018.2
20260507101154 16 0.0 0.0 0.00 0.00 0.00 80 1018.2
20260507100854 16 0.0 0.0 0.00 0.00 0.00 80 1018.2
20260507100554 16 0.0 0.0 0.00 0.00 0.00 80 1018.2
20260507100254 16 0.0 0.0 0.00 0.00 0.00 79 1018.2
20260507095954 16 0.0 0.0 0.00 0.00 0.00 81 1018.2
20260507095654 16 0.0 0.0 0.00 0.00 0.00 81 1018.4
20260507095354 16 0.0 0.0 0.00 0.00 0.00 80 1018.2
20260507095055 16 0.0 0.0 0.00 0.00 0.00 80 1018.1
20260507094755 16 0.0 0.0 0.00 0.00 0.00 80 1018.1
20260507094454 16 0.0 0.0 0.00 0.00 0.00 81 1018.3
20260507094154 16 0.0 0.0 0.00 0.00 0.00 81 1018.2
20260507093855 16 0.0 0.0 0.00 0.00 0.00 81 1018.1
20260507093555 16 0.0 0.0 0.00 0.00 0.00 80 1018.2
20260507093255 16 0.0 0.0 0.00 0.00 0.00 79 1018.2
20260507092955 16 0.0 0.0 0.00 0.00 0.00 81 1018.4
20260507092655 16 0.0 0.0 0.00 0.00 0.00 81 1018.4
20260507092355 16 0.0 0.0 0.00 0.00 0.00 81 1018.3
20260507092054 16 0.0 0.0 0.00 0.00 0.00 81 1018.3
20260507091754 16 0.0 0.0 0.00 0.00 0.00 81 1018.3
20260507091454 16 0.0 0.0 0.00 0.00 0.00 81 1018.4
20260507091154 16 0.0 0.0 0.00 0.00 0.00 80 1018.2
20260507090854 16 0.0 0.0 0.00 0.00 0.00 80 1018.2
20260507090554 16 0.0 0.0 0.00 0.00 0.00 82 1018.4
20260507090255 16 0.0 0.0 0.00 0.00 0.00 82 1018.4
20260507085955 16 0.0 0.0 0.00 0.00 0.00 81 1018.3
20260507085654 16 0.0 0.0 0.00 0.00 0.00 81 1018.3
20260507085354 16 0.0 0.0 0.00 0.00 0.00 81 1018.3
20260507085054 16 0.0 0.0 0.00 0.00 0.00 82 1018.3
20260507084754 16 0.0 0.0 0.00 0.00 0.00 83 1018.4
20260507084455 15 0.0 0.0 0.00 0.00 0.00 84 1018.6
20260507084155 16 0.0 0.0 0.00 0.00 0.00 82 1018.3
20260507083854 16 0.0 0.0 0.00 0.00 0.00 82 1018.2
20260507083554 16 0.0 0.0 0.00 0.00 0.00 81 1018.3
20260507083255 16 0.0 0.0 0.00 0.00 0.00 83 1018.3
20260507082955 15 0.0 0.0 0.00 0.00 0.00 85 1018.6
20260507082654 15 0.0 0.0 0.00 0.00 0.00 85 1018.6
20260507082354 15 0.0 0.0 0.00 0.00 0.00 84 1018.5
20260507082054 16 0.0 0.0 0.00 0.00 0.00 84 1018.5
20260507081754 16 0.0 0.0 0.00 0.00 0.00 84 1018.5
20260507081454 15 0.0 0.0 0.00 0.00 0.00 84 1018.5
20260507081154 16 0.0 0.0 0.00 0.00 0.00 81 1018.1
20260507080854 16 0.0 0.0 0.00 0.00 0.00 83 1018.3
20260507080554 16 0.0 0.0 0.00 0.00 0.00 84 1018.4
20260507080254 16 0.0 0.0 0.00 0.00 0.00 81 1018.3
20260507075954 16 0.0 0.0 0.00 0.00 0.00 81 1018.2
20260507075654 16 0.0 0.0 0.00 0.00 0.00 83 1018.3
20260507075354 16 0.0 0.0 0.00 0.00 0.00 83 1018.3
20260507075055 16 0.0 0.0 0.00 0.00 0.00 81 1018.1
20260507074755 16 0.0 0.0 0.00 0.00 0.00 80 1018.3
20260507074455 17 0.0 0.0 0.00 0.00 0.00 78 1018.0
20260507074155 17 0.0 0.0 0.00 0.00 0.00 78 1018.2
20260507073855 16 0.0 0.0 0.00 0.00 0.00 80 1018.4
20260507073555 16 0.0 0.0 0.00 0.00 0.00 79 1018.2
20260507073254 16 0.0 0.0 0.00 0.00 0.00 79 1018.3
20260507072954 16 0.0 0.0 0.00 0.00 0.00 80 1018.4
20260507072654 16 0.0 0.0 0.00 0.00 0.00 80 1018.5
20260507072354 16 0.0 0.0 0.00 0.00 0.00 81 1018.5
20260507072054 16 0.0 0.0 0.00 0.00 0.00 80 1018.4
20260507071754 16 0.0 0.0 0.00 0.00 0.00 79 1018.2
20260507071454 16 0.0 0.0 0.00 0.00 0.00 81 1018.4
20260507071154 16 0.0 0.0 0.00 0.00 0.00 81 1018.5
20260507070855 16 0.0 0.0 0.00 0.00 0.00 82 1018.7
20260507070555 16 0.0 0.0 0.00 0.00 0.00 81 1018.5
20260507070254 16 0.0 0.0 0.00 0.00 0.00 82 1018.8
20260507065954 17 0.0 0.0 0.00 0.00 0.00 78 1018.4
20260507065654 16 0.0 0.0 0.00 0.00 0.00 80 1018.6
20260507065355 16 0.0 0.0 0.00 0.00 0.00 80 1018.8
20260507065054 16 0.0 0.0 0.00 0.00 0.00 81 1018.8
20260507064754 16 0.0 0.0 0.00 0.00 0.00 82 1018.9
20260507064454 16 0.0 0.0 0.00 0.00 0.00 80 1018.9
20260507064154 16 0.0 0.0 0.00 0.00 0.00 79 1018.8
20260507063855 16 0.0 0.0 0.00 0.00 0.00 80 1018.8
20260507063555 16 0.0 0.0 0.00 0.00 0.00 80 1018.9
20260507063255 16 0.0 0.0 0.00 0.00 0.00 80 1018.8
20260507062955 16 0.0 0.0 0.00 0.00 0.00 82 1019.0
20260507062654 16 0.0 0.0 0.00 0.00 0.00 82 1019.1
20260507062354 16 0.0 0.0 0.00 0.00 0.00 81 1019.1
20260507062054 16 0.0 0.0 0.00 0.00 0.00 81 1019.1
20260507061754 16 0.0 0.0 0.00 0.00 0.00 81 1019.3
20260507061455 16 0.0 0.0 0.00 0.00 0.00 81 1019.4
20260507061155 16 0.0 0.0 0.00 0.00 0.00 82 1019.3
20260507060854 16 0.0 0.0 0.00 0.00 0.00 82 1019.3
20260507060554 16 0.0 0.0 0.00 0.00 0.00 83 1019.4
20260507060254 16 0.0 0.0 0.00 0.00 0.00 83 1019.3
20260507055954 16 0.0 0.0 0.00 0.00 0.00 85 1019.3
20260507055654 16 0.0 0.0 0.00 0.00 0.00 85 1019.3
20260507055354 16 0.0 0.0 0.00 0.00 0.00 84 1019.4
20260507055055 16 0.0 0.0 0.00 0.00 0.00 85 1019.5
20260507054755 17 0.0 0.0 0.00 0.00 0.00 83 1019.3
20260507054454 17 0.0 0.0 0.00 0.00 0.00 83 1019.5
20260507054154 16 0.0 0.0 0.00 0.00 0.00 85 1019.7
20260507053855 16 0.0 0.0 0.00 0.00 0.00 83 1019.6
20260507053555 17 0.0 0.0 0.00 0.00 0.00 82 1019.6
20260507053254 17 0.0 0.0 0.00 0.00 0.00 80 1019.6
20260507052954 17 0.0 0.0 0.00 0.00 0.00 79 1019.4
20260507052655 17 0.0 0.0 0.00 0.00 0.00 78 1019.4
20260507052355 17 0.0 0.0 0.00 0.00 0.00 78 1019.4
20260507052055 17 0.0 0.0 0.00 0.00 0.00 78 1019.5
20260507051755 17 0.0 0.0 0.00 0.00 0.00 79 1019.6
20260507051455 17 0.0 0.0 0.00 0.00 0.00 78 1019.6
20260507051155 17 0.0 0.0 0.00 0.00 0.00 78 1019.6
20260507050854 17 0.0 0.0 0.00 0.00 0.00 78 1019.7
20260507050554 17 0.0 0.0 0.00 0.00 0.00 79 1019.9
20260507050255 17 0.0 0.0 0.00 0.00 0.00 79 1019.9
20260507045955 17 0.0 0.0 0.00 0.00 0.00 78 1019.9
20260507045654 17 0.0 0.0 0.00 0.00 0.00 78 1020.0
20260507045354 17 0.0 0.0 0.00 0.00 0.00 80 1020.2
20260507045054 17 0.0 0.0 0.00 0.00 0.00 79 1020.1
20260507044754 17 0.0 0.0 0.00 0.00 0.00 80 1020.2
20260507044454 17 0.0 0.0 0.00 0.00 0.00 77 1020.0
20260507044154 17 0.0 0.0 0.00 0.00 0.00 79 1020.2
20260507043854 16 0.0 0.0 0.00 0.00 0.00 81 1020.5
20260507043554 17 0.0 0.0 0.00 0.00 0.00 80 1020.4
20260507043254 16 0.0 0.0 0.00 0.00 0.00 82 1020.5
20260507042954 16 0.0 0.0 0.00 0.00 0.00 81 1020.6
20260507042654 17 0.0 0.0 0.00 0.00 0.00 79 1020.5
20260507042354 17 0.0 0.0 0.00 0.00 0.00 79 1020.5
20260507042054 17 0.0 0.0 0.00 0.00 0.00 80 1020.6
20260507041754 16 0.0 0.0 0.00 0.00 0.00 81 1020.8
20260507041455 17 0.0 0.0 0.00 0.00 0.00 78 1020.5
20260507041154 17 0.0 0.0 0.00 0.00 0.00 78 1020.5
20260507040854 17 0.0 0.0 0.00 0.00 0.00 77 1020.3
20260507040555 17 0.0 0.0 0.00 0.00 0.00 78 1020.5
20260507040255 17 0.0 0.0 0.00 0.00 0.00 77 1020.5
20260507035955 18 0.0 0.0 0.00 0.00 0.00 75 1020.4
20260507035655 17 0.0 0.0 0.00 0.00 0.00 76 1020.4
20260507035354 17 0.0 0.0 0.00 0.00 0.00 76 1020.5
20260507035054 17 0.0 0.0 0.00 0.00 0.00 76 1020.4
20260507034754 18 0.0 0.0 0.00 0.00 0.00 76 1020.4
20260507034454 18 0.0 0.0 0.00 0.00 0.00 75 1020.3
20260507034154 18 0.0 0.0 0.00 0.00 0.00 75 1020.5
20260507033855 18 0.0 0.0 0.00 0.00 0.00 74 1020.4
20260507033554 18 0.0 0.0 0.00 0.00 0.00 74 1020.4
20260507033254 18 0.0 0.0 0.00 0.00 0.00 75 1020.3
20260507032954 18 0.0 0.0 0.00 0.00 0.00 75 1020.4
20260507032654 18 0.0 0.0 0.00 0.00 0.00 75 1020.4
20260507032354 18 0.0 0.0 0.00 0.00 0.00 75 1020.4
20260507032055 18 0.0 0.0 0.00 0.00 0.00 76 1020.6
20260507031754 18 0.0 0.0 0.00 0.00 0.00 76 1020.6
20260507031454 18 0.0 0.0 0.00 0.00 0.00 75 1020.5
20260507031154 18 0.0 0.0 0.00 0.00 0.00 76 1020.4
20260507030854 18 0.0 0.0 0.00 0.00 0.00 76 1020.7
20260507030555 18 0.0 0.0 0.00 0.00 0.00 78 1020.7
20260507030254 17 0.0 0.0 0.00 0.00 0.00 80 1021.0
20260507025955 17 0.0 0.0 0.00 0.00 0.00 79 1021.0
20260507025655 17 0.0 0.0 0.00 0.00 0.00 80 1021.1
20260507025355 17 0.0 0.0 0.00 0.00 0.00 79 1021.0
20260507025054 17 0.0 0.0 0.00 0.00 0.00 79 1021.1
20260507024754 17 0.0 0.0 0.00 0.00 0.00 79 1021.1
20260507024455 17 0.0 0.0 0.00 0.00 0.00 79 1021.2
20260507024155 17 0.0 0.0 0.00 0.00 0.00 80 1021.2
20260507023854 17 0.0 0.0 0.00 0.00 0.00 79 1021.2
20260507023554 18 0.0 0.0 0.00 0.00 0.00 78 1021.1
20260507023254 18 0.0 0.0 0.00 0.00 0.00 76 1021.0
20260507022955 18 0.0 0.0 0.00 0.00 0.00 76 1020.9
20260507022655 18 0.0 0.0 0.00 0.00 0.00 76 1020.9
20260507022355 18 0.0 0.0 0.00 0.00 0.00 76 1021.0
20260507022054 18 0.0 0.0 0.00 0.00 0.00 76 1021.0
20260507021754 18 0.0 0.0 0.00 0.00 0.00 75 1020.9
20260507021456 18 0.0 0.0 0.00 0.00 0.00 76 1021.1
20260507021154 18 0.0 0.0 0.00 0.00 0.00 75 1021.0
20260507020854 19 0.0 0.0 0.00 0.00 0.00 74 1020.7
20260507020554 18 0.0 0.0 0.00 0.00 0.00 77 1020.9
20260507020255 18 0.0 0.0 0.00 0.00 0.00 77 1021.0
20260507015955 18 0.0 0.0 0.00 0.00 0.00 78 1021.1
20260507015655 18 0.0 0.0 0.00 0.00 0.00 78 1021.1
20260507015355 18 0.0 0.0 0.00 0.00 0.00 78 1021.2
20260507015054 18 0.0 0.0 0.00 0.00 0.00 80 1021.3
20260507014754 18 0.0 0.0 0.00 0.00 0.00 78 1021.2
20260507014454 18 0.0 0.0 0.00 0.00 0.00 79 1021.3
20260507014154 18 0.0 0.0 0.00 0.00 0.00 77 1021.1
20260507013854 18 0.0 0.0 0.00 0.00 0.00 76 1021.0
20260507013554 18 0.0 0.0 0.00 0.00 0.00 77 1021.0
20260507013254 18 0.0 0.0 0.00 0.00 0.00 77 1021.1
20260507012954 18 0.0 0.0 0.00 0.00 0.00 77 1021.2
20260507012654 18 0.0 0.0 0.00 0.00 0.00 78 1021.3
20260507012354 18 0.0 0.0 0.00 0.00 0.00 77 1021.2
20260507012055 19 0.0 0.0 0.00 0.00 0.00 76 1021.1
20260507011755 19 0.0 0.0 0.00 0.00 0.00 76 1021.0
20260507011455 19 0.0 0.0 0.00 0.00 0.00 77 1020.9
20260507011155 19 0.0 0.0 0.00 0.00 0.00 77 1021.0
20260507010855 18 0.0 0.0 0.00 0.00 0.00 78 1021.3
20260507010555 18 0.0 0.0 0.00 0.00 0.00 77 1021.2
20260507010255 18 0.0 0.0 0.00 0.00 0.00 78 1021.3
20260507005955 18 0.0 0.0 0.00 0.00 0.00 80 1021.4
20260507005654 18 0.0 0.0 0.00 0.00 0.00 80 1021.3
20260507005355 18 0.0 0.0 0.00 0.00 0.00 79 1021.3
20260507005055 18 0.0 0.0 0.00 0.00 0.00 80 1021.3
20260507004755 18 0.0 0.0 0.00 0.00 0.00 79 1021.2
20260507004455 18 0.0 0.0 0.00 0.00 0.00 79 1021.2
20260507004156 18 0.0 0.0 0.00 0.00 0.00 79 1021.2
20260507003855 18 0.0 0.0 0.00 0.00 0.00 79 1021.2
20260507003555 19 0.0 0.0 0.00 0.00 0.00 77 1021.0
20260507003254 19 0.0 0.0 0.00 0.00 0.00 76 1021.0
20260507002954 18 0.0 0.0 0.00 0.00 0.00 78 1021.3
20260507002654 19 0.0 0.0 0.00 0.00 0.00 77 1021.2
20260507002355 19 0.0 0.0 0.00 0.00 0.00 77 1021.0
20260507002054 19 0.0 0.0 0.00 0.00 0.00 77 1021.0
20260507001754 20 0.0 0.0 0.00 0.00 0.00 75 1020.9
20260507001457 19 0.0 0.0 0.00 0.00 0.00 77 1021.1
20260507001154 19 0.0 0.0 0.00 0.00 0.00 76 1020.9
20260507000854 20 0.0 0.0 0.00 0.00 0.00 75 1020.9
20260507000555 19 0.0 0.0 0.00 0.00 0.00 76 1021.0
20260507000254 19 0.0 0.0 0.00 0.00 0.00 77 1021.3
20260506235954 19 0.0 0.0 0.00 0.00 0.00 77 1021.1
20260506235654 20 0.0 0.0 0.00 0.00 0.00 77 1021.1
20260506235354 19 0.0 0.0 0.00 0.00 0.00 78 1021.2
20260506235054 19 0.0 0.0 0.00 0.00 0.00 78 1021.3
20260506234755 19 0.0 0.0 0.00 0.00 0.00 79 1021.3
20260506234454 19 0.0 0.0 0.00 0.00 0.00 79 1021.4
20260506234154 18 0.0 0.0 0.00 0.00 0.00 80 1021.5
20260506233854 18 0.0 0.0 0.00 0.00 0.00 79 1021.5
20260506233554 19 0.0 0.0 0.00 0.00 0.00 77 1021.3
20260506233254 19 0.0 0.0 0.00 0.00 0.00 78 1021.2
20260506232954 20 0.0 0.0 0.00 0.00 0.00 75 1021.0
20260506232654 20 0.0 0.0 0.00 0.00 0.00 76 1021.1
20260506232354 20 0.0 0.0 0.00 0.00 0.00 77 1021.3
20260506232054 19 0.0 0.0 0.00 0.00 0.00 79 1021.4
20260506231754 19 0.0 0.0 0.00 0.00 0.00 78 1021.4
20260506231454 19 0.0 0.0 0.00 0.00 0.00 78 1021.3
20260506231154 19 0.0 0.0 0.00 0.00 0.00 79 1021.3
20260506230854 19 0.0 0.0 0.00 0.00 0.00 79 1021.4
20260506230554 19 0.0 0.0 0.00 0.00 0.00 80 1021.2
20260506230254 19 0.0 0.0 0.00 0.00 0.00 79 1021.2
20260506225956 19 0.0 0.0 0.00 0.00 0.00 79 1021.2
20260506225654 19 0.0 0.0 0.00 0.00 0.00 80 1021.1
20260506225354 19 0.0 0.0 0.00 0.00 0.00 79 1021.0
20260506225054 19 0.0 0.0 0.00 0.00 0.00 79 1021.1
20260506224754 19 0.0 0.0 0.00 0.00 0.00 79 1021.2
20260506224454 19 0.0 0.0 0.00 0.00 0.00 78 1021.0
20260506224154 20 0.0 0.0 0.00 0.00 0.00 78 1020.9
20260506223854 20 0.0 0.0 0.00 0.00 0.00 77 1021.0
20260506223554 20 0.0 0.0 0.00 0.00 0.00 77 1020.9
20260506223257 20 0.0 0.0 0.00 0.00 0.00 77 1020.8
20260506222954 20 0.0 0.0 0.00 0.00 0.00 78 1020.8
20260506222654 20 0.0 0.0 0.00 0.00 0.00 79 1020.9
20260506222355 20 0.0 0.0 0.00 0.00 0.00 78 1020.8
20260506222054 20 0.0 0.0 0.00 0.00 0.00 78 1020.8
20260506221754 20 0.0 0.0 0.00 0.00 0.00 79 1020.8
20260506221454 20 0.0 0.0 0.00 0.00 0.00 79 1020.7
20260506221154 20 0.0 0.0 0.00 0.00 0.00 78 1020.6
20260506220854 20 0.0 0.0 0.00 0.00 0.00 78 1020.5
20260506220554 20 0.0 0.0 0.00 0.00 0.00 79 1020.7
20260506220254 20 0.0 0.0 0.00 0.00 0.00 78 1020.6
20260506215954 20 0.0 0.0 0.00 0.00 0.00 77 1020.6
20260506215654 20 0.0 0.0 0.00 0.00 0.00 76 1020.5
20260506215354 21 0.0 0.0 0.00 0.00 0.00 74 1020.5
20260506215055 20 0.0 0.0 0.00 0.00 0.00 76 1020.5
20260506214755 20 0.0 0.0 0.00 0.00 0.00 76 1020.6
20260506214454 20 0.0 0.0 0.00 0.00 0.00 76 1020.5
20260506214154 21 0.0 0.0 0.00 0.00 0.00 76 1020.5
20260506213854 20 0.0 0.0 0.00 0.00 0.00 77 1020.6